Location: Burgberg
(50.1428°N, 11.0671°E)
Time: 17:44:12
(UTC+00:00)

Cosmos 1697 Rocket - Pass Details

Date: 26 January 2020
Orbit: 832 x 843 km, 71.0° (Epoch: 28 February)

Event Time Altitude Azimuth Distance (km) Brightness Sun altitude
Exits shadow 05:10:47 22° 313° (NW) 1,752 3.9 -17.1°
Maximum altitude 05:11:18 22° 321° (NW) 1,740 3.9 -17.0°
Drops below altitude 10° 05:15:39 10° 12° (NNE) 2,456 5.1 -16.3°
Sets 05:18:40 0° 27° (NNE) 3,394 6.1 -15.8°
